When you browse on this site, cookies collect data to enhance your experience and personalize the content and advertising you see.
Visit our Privacy Policy to learn more. By continuing to use the site, you agree to this use of cookies and data.
  • In Austria
  • List of Countries
  • For 7 days
  • Water Temperature
  • Weather Map
  • News
  • Weather Widgets
  • user-avatar
    Login

    Hourly Weather San Luis

    Today, 25 August, Sunday

    Time Temperature Precipitation Wind Pressure Humidity
    00:00 +13°C° 0 mm 3 mps 698 mmHg 54%
    01:00 +13°C° 0 mm 3 mps 698 mmHg 55%
    02:00 +13°C° 0 mm 3 mps 697 mmHg 56%
    03:00 +13°C° 0 mm 3 mps 697 mmHg 57%
    04:00 +13°C° 0 mm 3 mps 697 mmHg 58%
    05:00 +13°C° 0 mm 4 mps 697 mmHg 59%
    06:00 +13°C° 0 mm 3 mps 698 mmHg 56%
    07:00 +14°C° 0 mm 3 mps 698 mmHg 53%
    08:00 +16°C° 0 mm 2 mps 699 mmHg 51%
    09:00 +18°C° 0 mm 2 mps 699 mmHg 46%
    10:00 +20°C° 0 mm 2 mps 699 mmHg 40%
    11:00 +23°C° 0 mm 2 mps 699 mmHg 35%
    12:00 +24°C° 0 mm 3 mps 699 mmHg 33%
    13:00 +24°C° 0 mm 3 mps 699 mmHg 32%
    14:00 +25°C° 0 mm 3 mps 698 mmHg 30%
    15:00 +25°C° 0 mm 3 mps 698 mmHg 30%
    16:00 +25°C° 0 mm 3 mps 698 mmHg 30%
    17:00 +25°C° 0 mm 3 mps 698 mmHg 31%
    18:00 +22°C° 0 mm 3 mps 698 mmHg 36%
    19:00 +20°C° 0 mm 3 mps 698 mmHg 41%
    20:00 +18°C° 0 mm 2 mps 698 mmHg 46%
    21:00 +17°C° 0 mm 3 mps 698 mmHg 48%
    22:00 +17°C° 0 mm 3 mps 698 mmHg 50%
    23:00 +16°C° 0 mm 3 mps 698 mmHg 52%

    Tomorrow, 26 August, Monday

    Time Temperature Precipitation Wind Pressure Humidity
    00:00 +16°C° 0 mm 3 mps 698 mmHg 53%
    01:00 +15°C° 0 mm 2 mps 698 mmHg 54%
    02:00 +15°C° 0 mm 2 mps 698 mmHg 55%
    03:00 +15°C° 0 mm 2 mps 697 mmHg 55%
    04:00 +15°C° 0 mm 2 mps 697 mmHg 55%
    05:00 +14°C° 0 mm 3 mps 697 mmHg 55%
    06:00 +16°C° 0 mm 3 mps 697 mmHg 52%
    07:00 +17°C° 0 mm 3 mps 697 mmHg 50%
    08:00 +18°C° 0 mm 3 mps 698 mmHg 47%
    09:00 +21°C° 0 mm 3 mps 698 mmHg 41%
    10:00 +24°C° 0 mm 3 mps 698 mmHg 34%
    11:00 +27°C° 0 mm 3 mps 699 mmHg 28%
    12:00 +28°C° 0 mm 4 mps 698 mmHg 27%
    13:00 +29°C° 0 mm 4 mps 698 mmHg 25%
    14:00 +29°C° 0 mm 5 mps 697 mmHg 24%
    15:00 +29°C° 0 mm 4 mps 697 mmHg 26%
    16:00 +29°C° 0 mm 4 mps 697 mmHg 27%
    17:00 +28°C° 0 mm 3 mps 697 mmHg 29%
    18:00 +26°C° 0 mm 3 mps 697 mmHg 35%
    19:00 +23°C° 0 mm 2 mps 697 mmHg 41%
    20:00 +20°C° 0 mm 2 mps 697 mmHg 47%
    21:00 +19°C° 0 mm 2 mps 698 mmHg 51%
    22:00 +19°C° 0 mm 2 mps 698 mmHg 54%
    23:00 +18°C° 0 mm 2 mps 699 mmHg 58%

    Day after tomorrow, 27 August, Tuesday

    Time Temperature Precipitation Wind Pressure Humidity
    00:00 +18°C° 0 mm 2 mps 699 mmHg 58%
    01:00 +18°C° 0 mm 2 mps 699 mmHg 58%
    02:00 +19°C° 0 mm 2 mps 700 mmHg 57%
    03:00 +18°C° 0 mm 2 mps 700 mmHg 66%
    04:00 +17°C° 0 mm 2 mps 700 mmHg 74%
    05:00 +15°C° 0 mm 2 mps 700 mmHg 82%
    06:00 +16°C° 0 mm 2 mps 700 mmHg 81%
    07:00 +16°C° 0 mm 2 mps 700 mmHg 80%
    08:00 +17°C° 0 mm 2 mps 701 mmHg 78%
    09:00 +19°C° 0 mm 3 mps 701 mmHg 70%
    10:00 +21°C° 0 mm 3 mps 701 mmHg 61%
    11:00 +24°C° 0 mm 3 mps 701 mmHg 52%
    12:00 +25°C° 0 mm 3 mps 701 mmHg 46%
    13:00 +26°C° 0 mm 3 mps 700 mmHg 41%
    14:00 +28°C° 0 mm 3 mps 700 mmHg 36%
    15:00 +27°C° 0 mm 3 mps 699 mmHg 37%
    16:00 +27°C° 0 mm 2 mps 699 mmHg 37%
    17:00 +27°C° 0 mm 2 mps 698 mmHg 38%
    18:00 +25°C° 0 mm 1 mps 698 mmHg 45%
    19:00 +22°C° 0 mm 1 mps 697 mmHg 52%
    20:00 +20°C° 0 mm 1 mps 697 mmHg 59%
    21:00 +20°C° 0 mm 1 mps 696 mmHg 60%
    22:00 +20°C° 0 mm 1 mps 696 mmHg 61%
    23:00 +19°C° 0 mm 1 mps 696 mmHg 62%

    28 August, Wednesday

    Time Temperature Precipitation Wind Pressure Humidity
    00:00 +18°C° 0 mm 2 mps 695 mmHg 62%
    01:00 +19°C° 0 mm 2 mps 695 mmHg 62%
    02:00 +19°C° 0 mm 3 mps 694 mmHg 62%
    03:00 +19°C° 0 mm 3 mps 694 mmHg 63%
    04:00 +19°C° 0 mm 3 mps 693 mmHg 64%
    05:00 +19°C° 0 mm 3 mps 693 mmHg 65%
    06:00 +20°C° 0 mm 4 mps 693 mmHg 62%
    07:00 +21°C° 0 mm 4 mps 693 mmHg 58%
    08:00 +22°C° 0 mm 5 mps 694 mmHg 55%
    09:00 +24°C° 0 mm 6 mps 694 mmHg 49%
    10:00 +27°C° 0 mm 8 mps 694 mmHg 42%
    11:00 +29°C° 0 mm 9 mps 694 mmHg 36%
    12:00 +32°C° 0 mm 10 mps 693 mmHg 32%
    13:00 +33°C° 0 mm 10 mps 693 mmHg 29%
    14:00 +34°C° 0 mm 10 mps 692 mmHg 25%
    15:00 +34°C° 0 mm 9 mps 691 mmHg 25%
    16:00 +34°C° 0 mm 8 mps 691 mmHg 26%
    17:00 +33°C° 0 mm 7 mps 691 mmHg 26%
    18:00 +30°C° 0 mm 6 mps 690 mmHg 30%
    19:00 +28°C° 0 mm 5 mps 690 mmHg 34%
    20:00 +26°C° 0 mm 4 mps 690 mmHg 37%
    21:00 +25°C° 0 mm 4 mps 690 mmHg 39%
    22:00 +25°C° 0 mm 4 mps 691 mmHg 41%
    23:00 +25°C° 0 mm 4 mps 691 mmHg 42%

    29 August, Thursday

    Time Temperature Precipitation Wind Pressure Humidity
    00:00 +22°C° 0 mm 4 mps 691 mmHg 45%
    01:00 +21°C° 0 mm 4 mps 691 mmHg 48%
    02:00 +20°C° 0 mm 5 mps 691 mmHg 51%
    03:00 +18°C° 0 mm 7 mps 692 mmHg 52%
    04:00 +16°C° 0 mm 9 mps 692 mmHg 53%
    05:00 +14°C° 0 mm 11 mps 693 mmHg 54%
    06:00 +13°C° 0 mm 11 mps 694 mmHg 53%
    07:00 +12°C° 0 mm 11 mps 695 mmHg 52%
    08:00 +12°C° 0 mm 12 mps 697 mmHg 51%
    09:00 +13°C° 0 mm 12 mps 697 mmHg 46%
    10:00 +14°C° 0 mm 12 mps 698 mmHg 41%
    11:00 +14°C° 0 mm 12 mps 699 mmHg 36%
    12:00 +16°C° 0 mm 11 mps 699 mmHg 32%
    13:00 +16°C° 0 mm 11 mps 698 mmHg 28%
    14:00 +17°C° 0 mm 10 mps 698 mmHg 24%
    15:00 +16°C° 0 mm 10 mps 698 mmHg 24%
    16:00 +16°C° 0 mm 10 mps 698 mmHg 24%
    17:00 +14°C° 0 mm 10 mps 698 mmHg 24%
    18:00 +13°C° 0 mm 10 mps 698 mmHg 26%
    19:00 +12°C° 0 mm 9 mps 699 mmHg 28%
    20:00 +11°C° 0 mm 9 mps 699 mmHg 30%
    21:00 +10°C° 0 mm 8 mps 699 mmHg 31%
    22:00 +10°C° 0 mm 8 mps 700 mmHg 33%
    23:00 +10°C° 0 mm 8 mps 700 mmHg 34%

    30 August, Friday

    Time Temperature Precipitation Wind Pressure Humidity
    00:00 +9°C° 0 mm 8 mps 700 mmHg 32%
    01:00 +9°C° 0 mm 7 mps 700 mmHg 30%
    02:00 +9°C° 0 mm 7 mps 700 mmHg 28%
    03:00 +9°C° 0 mm 7 mps 700 mmHg 28%
    04:00 +8°C° 0 mm 6 mps 700 mmHg 28%
    05:00 +8°C° 0 mm 6 mps 700 mmHg 27%
    06:00 +8°C° 0 mm 6 mps 700 mmHg 28%
    07:00 +8°C° 0 mm 6 mps 700 mmHg 29%
    08:00 +9°C° 0 mm 6 mps 700 mmHg 29%
    09:00 +12°C° 0 mm 5 mps 700 mmHg 26%
    10:00 +14°C° 0 mm 4 mps 700 mmHg 23%
    11:00 +17°C° 0 mm 4 mps 700 mmHg 21%
    12:00 +18°C° 0 mm 3 mps 700 mmHg 20%
    13:00 +19°C° 0 mm 3 mps 700 mmHg 20%
    14:00 +20°C° 0 mm 3 mps 699 mmHg 20%
    15:00 +20°C° 0 mm 4 mps 699 mmHg 20%
    16:00 +20°C° 0 mm 5 mps 699 mmHg 20%
    17:00 +19°C° 0 mm 6 mps 699 mmHg 19%
    18:00 +16°C° 0 mm 7 mps 699 mmHg 22%
    19:00 +14°C° 0 mm 7 mps 699 mmHg 24%
    20:00 +11°C° 0 mm 8 mps 700 mmHg 26%
    21:00 +10°C° 0 mm 7 mps 700 mmHg 28%
    22:00 +9°C° 0 mm 6 mps 700 mmHg 31%
    23:00 +8°C° 0 mm 5 mps 701 mmHg 34%
    Show more